Private Wetterstation Wechselburg
Wetterdaten: Donnerstag, 25.03.2021
Datum Zeit Temp. +2m Bodentemp. Temp.+5cm Temp. Wind Windchill X Diff Temp. Feuchte +2m Feuchte +5cm Luftdruck Regen Wind Richtung Richtung Sonnenschein Taupunkt Windchill Windben
25.03.2021 00:00 1,2 C 7,6 C 0,8 C 0,7 C -0,3 C 0,0 C 84 % 90 % 1023,8 hPa 0,0 l/m 0,0 km/h (0 Bft) S-SO 157 0 min -1,2 C -0,3 C 0,0 km/h (0 Bft)
25.03.2021 00:05 1,2 C 7,6 C 0,8 C 0,7 C -0,3 C 0,0 C 84 % 90 % 1023,8 hPa 0,0 l/m 0,0 km/h (0 Bft) S-SO 157 0 min -1,2 C -0,3 C 0,0 km/h (0 Bft)
25.03.2021 00:10 1,2 C 7,6 C 0,7 C 0,7 C -0,2 C 0,0 C 84 % 90 % 1023,8 hPa 0,0 l/m 0,0 km/h (0 Bft) S-SO 157 0 min -1,2 C -0,2 C 0,0 km/h (0 Bft)
25.03.2021 00:15 1,1 C 7,5 C 0,7 C 0,6 C -0,3 C 0,0 C 84 % 90 % 1023,8 hPa 0,0 l/m 0,0 km/h (0 Bft) S-SO 157 0 min -1,3 C -0,3 C 0,0 km/h (0 Bft)
25.03.2021 00:20 1,1 C 7,5 C 0,6 C 0,6 C -0,5 C 0,0 C 84 % 90 % 1023,8 hPa 0,0 l/m 0,0 km/h (0 Bft) S-SO 157 0 min -1,3 C -0,5 C 0,0 km/h (0 Bft)
25.03.2021 00:25 1,0 C 7,5 C 0,6 C 0,5 C -0,5 C 0,0 C 84 % 90 % 1023,8 hPa 0,0 l/m 0,0 km/h (0 Bft) S-SO 157 0 min -1,4 C -0,5 C 0,0 km/h (0 Bft)
25.03.2021 00:30 0,9 C 7,5 C 0,5 C 0,4 C -0,6 C 0,0 C 84 % 90 % 1023,4 hPa 0,0 l/m 0,0 km/h (0 Bft) S-SO 157 0 min -1,5 C -0,6 C 0,0 km/h (0 Bft)
25.03.2021 00:35 0,8 C 7,5 C 0,5 C 0,3 C -0,6 C 0,0 C 85 % 90 % 1023,4 hPa 0,0 l/m 0,0 km/h (0 Bft) S-SO 157 0 min -1,4 C -0,6 C 0,0 km/h (0 Bft)
25.03.2021 00:40 0,8 C 7,5 C 0,4 C 0,3 C -0,6 C 0,0 C 85 % 90 % 1023,4 hPa 0,0 l/m 0,0 km/h (0 Bft) S-SO 157 0 min -1,4 C -0,6 C 0,0 km/h (0 Bft)
25.03.2021 00:45 0,9 C 7,5 C 0,3 C 0,4 C -0,5 C 0,0 C 85 % 90 % 1023,4 hPa 0,0 l/m 0,0 km/h (0 Bft) S-SO 157 0 min -1,3 C -0,5 C 0,0 km/h (0 Bft)
25.03.2021 00:50 0,8 C 7,5 C 0,3 C 0,4 C -0,5 C 0,0 C 85 % 90 % 1023,4 hPa 0,0 l/m 0,0 km/h (0 Bft) S-SO 157 0 min -1,4 C -0,5 C 0,0 km/h (0 Bft)
25.03.2021 00:55 0,8 C 7,5 C 0,3 C 0,3 C -0,7 C 0,0 C 85 % 90 % 1023,4 hPa 0,0 l/m 0,0 km/h (0 Bft) S-SO 157 0 min -1,4 C -0,7 C 0,0 km/h (0 Bft)
25.03.2021 01:00 0,8 C 7,5 C 0,2 C 0,3 C -0,6 C 0,0 C 85 % 91 % 1023,4 hPa 0,0 l/m 0,0 km/h (0 Bft) S-SO 157 0 min -1,4 C -0,6 C 0,0 km/h (0 Bft)
25.03.2021 01:05 0,7 C 7,5 C 0,2 C 0,3 C -0,6 C 0,0 C 85 % 91 % 1023,4 hPa 0,0 l/m 0,0 km/h (0 Bft) S-SO 157 0 min -1,5 C -0,6 C 0,0 km/h (0 Bft)
25.03.2021 01:10 0,7 C 7,4 C 0,2 C 0,2 C -0,8 C 0,0 C 85 % 91 % 1023,3 hPa 0,0 l/m 0,0 km/h (0 Bft) S-SO 157 0 min -1,5 C -0,8 C 0,0 km/h (0 Bft)
25.03.2021 01:15 0,5 C 7,4 C 0,2 C 0,0 C -0,9 C 0,0 C 85 % 91 % 1023,3 hPa 0,0 l/m 0,0 km/h (0 Bft) S-SO 157 0 min -1,7 C -0,9 C 0,0 km/h (0 Bft)
25.03.2021 01:20 0,5 C 7,4 C 0,1 C 0,0 C -1,0 C 0,0 C 85 % 91 % 1023,3 hPa 0,0 l/m 0,0 km/h (0 Bft) S-SO 157 0 min -1,7 C -1,0 C 0,0 km/h (0 Bft)
25.03.2021 01:25 0,4 C 7,4 C 0,0 C -0,1 C -1,0 C 0,0 C 85 % 91 % 1023,3 hPa 0,0 l/m 0,0 km/h (0 Bft) S-SO 157 0 min -1,8 C -1,0 C 0,0 km/h (0 Bft)
25.03.2021 01:30 0,5 C 7,4 C -0,1 C 0,1 C -0,8 C 0,0 C 85 % 91 % 1023,1 hPa 0,0 l/m 0,0 km/h (0 Bft) S-SO 157 0 min -1,7 C -0,8 C 0,0 km/h (0 Bft)
25.03.2021 01:35 0,5 C 7,4 C -0,1 C 0,1 C -0,8 C 0,0 C 86 % 91 % 1023,1 hPa 0,0 l/m 0,0 km/h (0 Bft) S-SO 157 0 min -1,6 C -0,8 C 0,0 km/h (0 Bft)
25.03.2021 01:40 0,4 C 7,4 C -0,1 C -0,1 C -1,0 C 0,0 C 86 % 91 % 1023,1 hPa 0,0 l/m 0,0 km/h (0 Bft) S-SO 157 0 min -1,7 C -1,0 C 0,0 km/h (0 Bft)
25.03.2021 01:45 0,5 C 7,4 C -0,1 C 0,0 C -1,1 C 0,0 C 86 % 91 % 1023,1 hPa 0,0 l/m 0,0 km/h (0 Bft) S-SO 157 0 min -1,6 C -1,1 C 0,0 km/h (0 Bft)
25.03.2021 01:50 0,3 C 7,4 C -0,2 C -0,3 C -1,4 C 0,0 C 86 % 91 % 1023,4 hPa 0,0 l/m 0,0 km/h (0 Bft) S-SO 157 0 min -1,8 C -1,4 C 0,0 km/h (0 Bft)
25.03.2021 01:55 0,3 C 7,4 C -0,3 C -0,3 C -1,4 C 0,0 C 86 % 91 % 1023,4 hPa 0,0 l/m 0,0 km/h (0 Bft) S-SO 157 0 min -1,8 C -1,4 C 0,0 km/h (0 Bft)
25.03.2021 02:00 0,3 C 7,3 C -0,3 C -0,2 C -1,2 C 0,0 C 86 % 91 % 1023,4 hPa 0,0 l/m 0,0 km/h (0 Bft) S-SO 157 0 min -1,8 C -1,2 C 0,0 km/h (0 Bft)
25.03.2021 02:05 0,3 C 7,3 C -0,3 C -0,2 C -1,1 C 0,0 C 86 % 91 % 1023,4 hPa 0,0 l/m 0,0 km/h (0 Bft) S-SO 157 0 min -1,8 C -1,1 C 0,0 km/h (0 Bft)
25.03.2021 02:10 0,1 C 7,2 C -0,3 C -0,3 C -1,1 C 0,0 C 86 % 91 % 1022,9 hPa 0,0 l/m 0,0 km/h (0 Bft) S-SO 157 0 min -2,0 C -1,1 C 0,0 km/h (0 Bft)
25.03.2021 02:15 0,1 C 7,2 C -0,3 C -0,3 C -1,2 C 0,0 C 86 % 91 % 1022,9 hPa 0,0 l/m 0,0 km/h (0 Bft) S-SO 157 0 min -2,0 C -1,2 C 0,0 km/h (0 Bft)
25.03.2021 02:20 0,1 C 7,3 C -0,4 C -0,4 C -1,4 C 0,0 C 86 % 91 % 1022,9 hPa 0,0 l/m 0,0 km/h (0 Bft) S-SO 157 0 min -2,0 C -1,4 C 0,0 km/h (0 Bft)
25.03.2021 02:25 -0,1 C 7,3 C -0,5 C -0,5 C -1,4 C 0,0 C 86 % 91 % 1022,9 hPa 0,0 l/m 0,0 km/h (0 Bft) S-SO 157 0 min -2,2 C -1,4 C 0,0 km/h (0 Bft)
25.03.2021 02:30 -0,1 C 7,3 C -0,4 C -0,6 C -1,6 C 0,0 C 86 % 91 % 1022,9 hPa 0,0 l/m 0,0 km/h (0 Bft) S-SO 157 0 min -2,2 C -1,6 C 0,0 km/h (0 Bft)
25.03.2021 02:35 -0,2 C 7,3 C -0,5 C -0,7 C -1,6 C 0,0 C 86 % 91 % 1022,9 hPa 0,0 l/m 0,0 km/h (0 Bft) S-SO 157 0 min -2,3 C -1,6 C 0,0 km/h (0 Bft)
25.03.2021 02:40 -0,1 C 7,3 C -0,5 C -0,6 C -1,6 C 0,0 C 86 % 91 % 1022,9 hPa 0,0 l/m 0,0 km/h (0 Bft) S-SO 157 0 min -2,2 C -1,6 C 0,0 km/h (0 Bft)
25.03.2021 02:45 -0,1 C 7,2 C -0,5 C -0,6 C -1,5 C 0,0 C 86 % 91 % 1022,9 hPa 0,0 l/m 0,0 km/h (0 Bft) S-SO 157 0 min -2,2 C -1,5 C 0,0 km/h (0 Bft)
25.03.2021 02:50 -0,3 C 7,2 C -0,7 C -0,7 C -1,6 C 0,0 C 86 % 91 % 1023,0 hPa 0,0 l/m 0,0 km/h (0 Bft) S-SO 157 0 min -2,3 C -1,6 C 0,0 km/h (0 Bft)
25.03.2021 02:55 -0,3 C 7,2 C -0,6 C -0,7 C -1,6 C 0,0 C 86 % 91 % 1023,0 hPa 0,0 l/m 0,0 km/h (0 Bft) S-SO 157 0 min -2,3 C -1,6 C 0,0 km/h (0 Bft)
25.03.2021 03:00 -0,4 C 7,2 C -0,6 C -0,7 C -1,4 C 0,0 C 86 % 91 % 1023,0 hPa 0,0 l/m 0,0 km/h (0 Bft) S-SO 157 0 min -2,4 C -1,4 C 0,0 km/h (0 Bft)
25.03.2021 03:05 -0,3 C 7,2 C -0,6 C -0,7 C -1,5 C 0,0 C 86 % 91 % 1023,0 hPa 0,0 l/m 0,0 km/h (0 Bft) S-SO 157 0 min -2,3 C -1,5 C 0,0 km/h (0 Bft)
25.03.2021 03:10 -0,3 C 7,2 C -0,7 C -0,8 C -1,7 C 0,0 C 86 % 91 % 1022,8 hPa 0,0 l/m 0,0 km/h (0 Bft) S-SO 157 0 min -2,3 C -1,7 C 0,0 km/h (0 Bft)
25.03.2021 03:15 -0,5 C 7,2 C -0,7 C -0,9 C -1,8 C 0,0 C 86 % 91 % 1022,8 hPa 0,0 l/m 0,0 km/h (0 Bft) S-SO 157 0 min -2,5 C -1,8 C 0,0 km/h (0 Bft)
25.03.2021 03:20 -0,5 C 7,2 C -0,7 C -1,0 C -1,9 C 0,0 C 86 % 91 % 1022,8 hPa 0,0 l/m 0,0 km/h (0 Bft) S-SO 157 0 min -2,5 C -1,9 C 0,0 km/h (0 Bft)
25.03.2021 03:25 -0,5 C 7,1 C -0,7 C -0,9 C -1,8 C 0,0 C 86 % 91 % 1022,8 hPa 0,0 l/m 0,0 km/h (0 Bft) S-SO 157 0 min -2,5 C -1,8 C 0,0 km/h (0 Bft)
25.03.2021 03:30 -0,5 C 7,1 C -0,8 C -1,0 C -1,9 C 0,0 C 86 % 91 % 1022,8 hPa 0,0 l/m 0,0 km/h (0 Bft) S-SO 157 0 min -2,5 C -1,9 C 0,0 km/h (0 Bft)
25.03.2021 03:35 -0,7 C 7,1 C -0,9 C -1,1 C -2,0 C 0,0 C 86 % 91 % 1022,8 hPa 0,0 l/m 0,0 km/h (0 Bft) S-SO 157 0 min -2,7 C -2,0 C 0,0 km/h (0 Bft)
25.03.2021 03:40 -0,7 C 7,1 C -0,9 C -1,1 C -2,0 C 0,0 C 86 % 91 % 1022,8 hPa 0,0 l/m 0,0 km/h (0 Bft) S-SO 157 0 min -2,7 C -2,0 C 0,0 km/h (0 Bft)
25.03.2021 03:45 -0,7 C 7,1 C -0,9 C -1,1 C -2,0 C 0,0 C 87 % 91 % 1022,8 hPa 0,0 l/m 0,0 km/h (0 Bft) S-SO 157 0 min -2,6 C -2,0 C 0,0 km/h (0 Bft)
25.03.2021 03:50 -0,7 C 7,1 C -0,9 C -1,1 C -2,0 C 0,0 C 87 % 91 % 1022,8 hPa 0,0 l/m 0,0 km/h (0 Bft) S-SO 157 0 min -2,6 C -2,0 C 0,0 km/h (0 Bft)
25.03.2021 03:55 -0,7 C 7,1 C -0,9 C -1,1 C -2,0 C 0,0 C 87 % 91 % 1022,8 hPa 0,0 l/m 0,0 km/h (0 Bft) S-SO 157 0 min -2,6 C -2,0 C 0,0 km/h (0 Bft)
25.03.2021 04:00 -0,8 C 7,1 C -0,9 C -1,2 C -2,1 C 0,0 C 87 % 91 % 1022,8 hPa 0,0 l/m 0,0 km/h (0 Bft) S-SO 157 0 min -2,7 C -2,1 C 0,0 km/h (0 Bft)
25.03.2021 04:05 -0,9 C 7,1 C -1,0 C -1,3 C -2,1 C 0,0 C 87 % 92 % 1022,8 hPa 0,0 l/m 0,0 km/h (0 Bft) S-SO 157 0 min -2,8 C -2,1 C 0,0 km/h (0 Bft)
25.03.2021 04:10 -0,9 C 6,9 C -1,0 C -1,3 C -2,2 C 0,0 C 87 % 92 % 1022,9 hPa 0,0 l/m 0,0 km/h (0 Bft) S-SO 157 0 min -2,8 C -2,2 C 0,0 km/h (0 Bft)
25.03.2021 04:15 -0,9 C 6,9 C -1,0 C -1,3 C -2,2 C 0,0 C 87 % 92 % 1022,9 hPa 0,0 l/m 0,0 km/h (0 Bft) S-SO 157 0 min -2,8 C -2,2 C 0,0 km/h (0 Bft)
25.03.2021 04:20 -0,9 C 6,9 C -1,0 C -1,3 C -2,2 C 0,0 C 87 % 92 % 1022,9 hPa 0,0 l/m 0,0 km/h (0 Bft) S-SO 157 0 min -2,8 C -2,2 C 0,0 km/h (0 Bft)
25.03.2021 04:25 -0,9 C 6,9 C -1,0 C -1,3 C -2,2 C 0,0 C 87 % 92 % 1022,9 hPa 0,0 l/m 0,0 km/h (0 Bft) S-SO 157 0 min -2,8 C -2,2 C 0,0 km/h (0 Bft)
25.03.2021 04:30 -0,9 C 6,9 C -1,0 C -1,3 C -2,2 C 0,0 C 87 % 92 % 1022,6 hPa 0,0 l/m 0,0 km/h (0 Bft) S-SO 157 0 min -2,8 C -2,2 C 0,0 km/h (0 Bft)
25.03.2021 04:35 -0,9 C 6,9 C -1,0 C -1,3 C -2,2 C 0,0 C 87 % 92 % 1022,6 hPa 0,0 l/m 0,0 km/h (0 Bft) S-SO 157 0 min -2,8 C -2,2 C 0,0 km/h (0 Bft)
25.03.2021 04:40 -0,9 C 6,9 C -1,0 C -1,4 C -2,3 C 0,0 C 87 % 92 % 1022,6 hPa 0,0 l/m 0,0 km/h (0 Bft) S-SO 157 0 min -2,8 C -2,3 C 0,0 km/h (0 Bft)
25.03.2021 04:45 -1,0 C 6,9 C -1,0 C -1,4 C -2,2 C 0,0 C 87 % 92 % 1022,6 hPa 0,0 l/m 0,0 km/h (0 Bft) S-SO 157 0 min -2,9 C -2,2 C 0,0 km/h (0 Bft)
25.03.2021 04:50 -0,9 C 6,8 C -1,0 C -1,3 C -2,2 C 0,0 C 87 % 92 % 1022,8 hPa 0,0 l/m 0,0 km/h (0 Bft) S-SO 157 0 min -2,8 C -2,2 C 0,0 km/h (0 Bft)
25.03.2021 04:55 -0,9 C 6,8 C -1,0 C -1,3 C -2,2 C 0,0 C 87 % 92 % 1022,8 hPa 0,0 l/m 0,0 km/h (0 Bft) S-SO 157 0 min -2,8 C -2,2 C 0,0 km/h (0 Bft)
25.03.2021 05:00 -0,9 C 6,8 C -1,0 C -1,3 C -2,2 C 0,0 C 87 % 92 % 1022,8 hPa 0,0 l/m 0,0 km/h (0 Bft) S-SO 157 0 min -2,8 C -2,2 C 0,0 km/h (0 Bft)
25.03.2021 05:05 -0,9 C 6,8 C -1,0 C -1,3 C -2,2 C 0,0 C 87 % 92 % 1022,8 hPa 0,0 l/m 0,0 km/h (0 Bft) S-SO 157 0 min -2,8 C -2,2 C 0,0 km/h (0 Bft)
25.03.2021 05:10 -1,1 C 6,8 C -1,1 C -1,5 C -2,2 C 0,0 C 87 % 92 % 1023,0 hPa 0,0 l/m 0,0 km/h (0 Bft) S-SO 157 0 min -3,0 C -2,2 C 0,0 km/h (0 Bft)
25.03.2021 05:15 -0,9 C 6,8 C -1,0 C -1,3 C -2,2 C 0,0 C 88 % 92 % 1023,0 hPa 0,0 l/m 0,0 km/h (0 Bft) S-SO 157 0 min -2,6 C -2,2 C 0,0 km/h (0 Bft)
25.03.2021 05:20 -0,9 C 6,8 C -1,0 C -1,3 C -2,1 C 0,0 C 88 % 92 % 1023,0 hPa 0,0 l/m 0,0 km/h (0 Bft) S-SO 157 0 min -2,6 C -2,1 C 0,0 km/h (0 Bft)
25.03.2021 05:25 -0,9 C 6,8 C -1,0 C -1,3 C -2,1 C 0,0 C 88 % 92 % 1023,0 hPa 0,0 l/m 0,0 km/h (0 Bft) S-SO 157 0 min -2,6 C -2,1 C 0,0 km/h (0 Bft)
25.03.2021 05:30 -0,9 C 6,8 C -1,1 C -1,3 C -2,2 C 0,0 C 88 % 92 % 1023,0 hPa 0,0 l/m 0,0 km/h (0 Bft) S-SO 157 0 min -2,6 C -2,2 C 0,0 km/h (0 Bft)
25.03.2021 05:35 -1,1 C 6,8 C -1,1 C -1,4 C -2,0 C 0,0 C 88 % 92 % 1023,0 hPa 0,0 l/m 0,0 km/h (0 Bft) S-SO 157 0 min -2,8 C -2,0 C 0,0 km/h (0 Bft)
25.03.2021 05:40 -1,1 C 6,7 C -1,1 C -1,3 C -1,6 C 0,0 C 88 % 92 % 1023,0 hPa 0,0 l/m 0,0 km/h (0 Bft) S-SO 157 0 min -2,8 C -1,6 C 0,0 km/h (0 Bft)
25.03.2021 05:45 -1,2 C 6,7 C -1,1 C -1,4 C -1,7 C 0,0 C 88 % 92 % 1023,0 hPa 0,0 l/m 0,0 km/h (0 Bft) S-SO 157 0 min -2,9 C -1,7 C 0,0 km/h (0 Bft)
25.03.2021 05:50 -1,3 C 6,7 C -1,2 C -1,5 C -1,9 C 0,0 C 88 % 92 % 1023,0 hPa 0,0 l/m 0,0 km/h (0 Bft) S-SO 157 0 min -3,0 C -1,9 C 0,0 km/h (0 Bft)
25.03.2021 05:55 -1,2 C 6,7 C -1,2 C -1,4 C -1,9 C 0,0 C 88 % 92 % 1023,0 hPa 0,0 l/m 0,0 km/h (0 Bft) S-SO 157 0 min -2,9 C -1,9 C 0,0 km/h (0 Bft)
25.03.2021 06:00 -1,1 C 6,7 C -1,2 C -1,3 C -1,8 C 0,0 C 88 % 92 % 1023,0 hPa 0,0 l/m 0,0 km/h (0 Bft) S-SO 157 0 min -2,8 C -1,8 C 0,0 km/h (0 Bft)
25.03.2021 06:05 -1,1 C 6,7 C -1,2 C -1,3 C -1,8 C 0,0 C 88 % 92 % 1023,0 hPa 0,0 l/m 0,0 km/h (0 Bft) S-SO 157 0 min -2,8 C -1,8 C 0,0 km/h (0 Bft)
25.03.2021 06:10 -1,1 C 6,7 C -1,1 C -1,3 C -1,7 C 0,0 C 88 % 92 % 1023,0 hPa 0,0 l/m 0,0 km/h (0 Bft) S-SO 157 0 min -2,8 C -1,7 C 0,0 km/h (0 Bft)
25.03.2021 06:15 -1,1 C 6,7 C -1,1 C -1,3 C -1,7 C 0,0 C 88 % 92 % 1023,0 hPa 0,0 l/m 0,0 km/h (0 Bft) S-SO 157 0 min -2,8 C -1,7 C 0,0 km/h (0 Bft)
25.03.2021 06:20 -1,2 C 6,7 C -1,0 C -1,3 C -1,4 C 0,0 C 88 % 92 % 1023,0 hPa 0,0 l/m 0,0 km/h (0 Bft) S-SO 157 0 min -2,9 C -1,4 C 0,0 km/h (0 Bft)
25.03.2021 06:25 -1,2 C 6,7 C -0,9 C -1,3 C -1,4 C 0,0 C 88 % 92 % 1023,0 hPa 0,0 l/m 0,0 km/h (0 Bft) S-SO 157 0 min -2,9 C -1,4 C 0,0 km/h (0 Bft)
25.03.2021 06:30 -0,9 C 6,7 C -0,8 C -0,9 C -1,0 C 0,0 C 88 % 92 % 1023,0 hPa 0,0 l/m 0,0 km/h (0 Bft) S-SO 157 0 min -2,6 C -1,0 C 0,0 km/h (0 Bft)
25.03.2021 06:35 -0,9 C 6,7 C -0,7 C -0,8 C -0,8 C 0,1 C 88 % 92 % 1023,0 hPa 0,0 l/m 0,0 km/h (0 Bft) S-SO 157 0 min -2,6 C -0,8 C 0,0 km/h (0 Bft)
25.03.2021 06:40 -0,9 C 6,7 C -0,5 C -0,4 C -0,4 C 0,5 C 88 % 92 % 1023,0 hPa 0,0 l/m 0,0 km/h (0 Bft) S-SO 157 0 min -2,6 C -0,4 C 0,0 km/h (0 Bft)
25.03.2021 06:45 -0,7 C 6,6 C -0,4 C -0,1 C -0,1 C 0,6 C 88 % 92 % 1023,0 hPa 0,0 l/m 0,0 km/h (0 Bft) S-SO 157 0 min -2,4 C -0,1 C 0,0 km/h (0 Bft)
25.03.2021 06:50 -0,7 C 6,6 C -0,3 C 0,2 C 0,2 C 0,9 C 88 % 92 % 1023,2 hPa 0,0 l/m 0,0 km/h (0 Bft) S-SO 157 0 min -2,4 C 0,2 C 0,0 km/h (0 Bft)
25.03.2021 06:55 -0,7 C 6,6 C 0,0 C 0,5 C 0,5 C 1,2 C 88 % 92 % 1023,2 hPa 0,0 l/m 0,0 km/h (0 Bft) S-SO 157 0 min -2,4 C 0,5 C 0,0 km/h (0 Bft)
25.03.2021 07:00 -0,5 C 6,6 C 0,0 C 0,8 C 0,8 C 1,3 C 88 % 92 % 1023,2 hPa 0,0 l/m 0,0 km/h (0 Bft) S-SO 157 0 min -2,2 C 0,8 C 0,0 km/h (0 Bft)
25.03.2021 07:05 -0,5 C 6,6 C 0,1 C 0,8 C 0,8 C 1,3 C 88 % 92 % 1023,2 hPa 0,0 l/m 0,0 km/h (0 Bft) S-SO 157 0 min -2,2 C 0,8 C 0,0 km/h (0 Bft)
25.03.2021 07:10 -0,5 C 6,6 C 0,3 C 1,1 C 1,1 C 1,6 C 88 % 92 % 1023,2 hPa 0,0 l/m 0,0 km/h (0 Bft) S-SO 157 0 min -2,2 C 1,1 C 0,0 km/h (0 Bft)
25.03.2021 07:15 -0,3 C 6,6 C 0,3 C 1,3 C 1,3 C 1,6 C 88 % 92 % 1023,2 hPa 0,0 l/m 0,0 km/h (0 Bft) S-SO 157 0 min -2,0 C 1,3 C 0,0 km/h (0 Bft)
25.03.2021 07:20 -0,3 C 6,6 C 0,6 C 1,6 C 1,6 C 1,9 C 88 % 92 % 1023,2 hPa 0,0 l/m 0,0 km/h (0 Bft) S-SO 157 0 min -2,0 C 1,6 C 0,0 km/h (0 Bft)
25.03.2021 07:25 -0,3 C 6,6 C 0,7 C 2,0 C 2,0 C 2,3 C 88 % 92 % 1023,2 hPa 0,0 l/m 0,0 km/h (0 Bft) S-SO 157 5 min -2,0 C 2,0 C 0,0 km/h (0 Bft)
25.03.2021 07:30 -0,1 C 6,6 C 0,9 C 2,8 C 2,8 C 2,9 C 88 % 92 % 1023,4 hPa 0,0 l/m 0,0 km/h (0 Bft) S-SO 157 5 min -1,8 C 2,8 C 0,0 km/h (0 Bft)
25.03.2021 07:35 -0,1 C 6,6 C 0,9 C 3,1 C 3,1 C 3,2 C 88 % 92 % 1023,4 hPa 0,0 l/m 0,0 km/h (0 Bft) S-SO 157 5 min -1,8 C 3,1 C 0,0 km/h (0 Bft)
25.03.2021 07:40 -0,1 C 6,6 C 1,1 C 3,6 C 3,6 C 3,7 C 88 % 92 % 1023,4 hPa 0,0 l/m 0,0 km/h (0 Bft) S-SO 157 5 min -1,8 C 3,6 C 0,0 km/h (0 Bft)
25.03.2021 07:45 0,1 C 6,6 C 1,3 C 4,0 C 4,0 C 3,9 C 88 % 92 % 1023,4 hPa 0,0 l/m 0,0 km/h (0 Bft) S-SO 157 5 min -1,6 C 4,0 C 0,0 km/h (0 Bft)
25.03.2021 07:50 0,1 C 6,5 C 1,5 C 5,0 C 5,0 C 4,9 C 88 % 92 % 1023,5 hPa 0,0 l/m 0,0 km/h (0 Bft) S-SO 157 5 min -1,6 C 5,0 C 0,0 km/h (0 Bft)
25.03.2021 07:55 0,3 C 6,4 C 1,5 C 5,9 C 5,9 C 5,6 C 88 % 92 % 1023,5 hPa 0,0 l/m 0,0 km/h (0 Bft) S-SO 157 5 min -1,4 C 5,9 C 0,0 km/h (0 Bft)
25.03.2021 08:00 0,5 C 6,3 C 1,9 C 6,9 C 6,9 C 6,4 C 88 % 92 % 1023,5 hPa 0,0 l/m 0,0 km/h (0 Bft) S-SO 157 5 min -1,3 C 6,9 C 0,0 km/h (0 Bft)
25.03.2021 08:05 0,7 C 6,3 C 2,1 C 8,0 C 8,0 C 7,3 C 88 % 92 % 1023,5 hPa 0,0 l/m 0,0 km/h (0 Bft) S-SO 157 5 min -1,1 C 8,0 C 0,0 km/h (0 Bft)
25.03.2021 08:10 0,8 C 6,2 C 2,3 C 8,2 C 8,2 C 7,4 C 88 % 92 % 1023,2 hPa 0,0 l/m 0,0 km/h (0 Bft) S-SO 157 5 min -1,0 C 8,2 C 0,0 km/h (0 Bft)
25.03.2021 08:15 1,1 C 6,3 C 2,5 C 8,1 C 8,1 C 7,0 C 88 % 92 % 1023,2 hPa 0,0 l/m 0,0 km/h (0 Bft) S-SO 157 5 min -0,7 C 8,1 C 0,0 km/h (0 Bft)
25.03.2021 08:20 1,2 C 6,2 C 2,7 C 8,7 C 8,7 C 7,5 C 88 % 92 % 1023,2 hPa 0,0 l/m 0,0 km/h (0 Bft) S-SO 157 5 min -0,6 C 8,7 C 0,0 km/h (0 Bft)
25.03.2021 08:25 1,3 C 6,3 C 3,1 C 9,8 C 9,8 C 8,5 C 88 % 92 % 1023,2 hPa 0,0 l/m 0,0 km/h (0 Bft) S-SO 157 5 min -0,5 C 9,8 C 0,0 km/h (0 Bft)
25.03.2021 08:30 1,6 C 6,2 C 3,6 C 11,6 C 11,6 C 10,0 C 88 % 92 % 1023,3 hPa 0,0 l/m 0,0 km/h (0 Bft) S-SO 157 5 min -0,2 C 11,6 C 0,0 km/h (0 Bft)
25.03.2021 08:35 1,8 C 6,2 C 3,9 C 12,7 C 12,7 C 10,9 C 88 % 92 % 1023,3 hPa 0,0 l/m 0,0 km/h (0 Bft) S-SO 157 5 min 0,0 C 12,7 C 0,0 km/h (0 Bft)
25.03.2021 08:40 2,3 C 6,2 C 4,3 C 13,7 C 13,7 C 11,4 C 89 % 92 % 1023,3 hPa 0,0 l/m 0,0 km/h (0 Bft) S-SO 157 5 min 0,7 C 13,7 C 0,0 km/h (0 Bft)
25.03.2021 08:45 2,4 C 6,2 C 4,7 C 13,8 C 13,8 C 11,4 C 89 % 91 % 1023,3 hPa 0,0 l/m 0,0 km/h (0 Bft) S-SO 157 5 min 0,8 C 13,8 C 0,0 km/h (0 Bft)
25.03.2021 08:50 2,8 C 6,1 C 5,5 C 12,9 C 12,9 C 10,1 C 88 % 91 % 1023,3 hPa 0,0 l/m 0,0 km/h (0 Bft) S-SO 157 5 min 1,0 C 12,9 C 0,0 km/h (0 Bft)
25.03.2021 08:55 3,1 C 6,1 C 6,1 C 12,4 C 12,4 C 9,3 C 88 % 91 % 1023,3 hPa 0,0 l/m 0,0 km/h (0 Bft) S-SO 157 5 min 1,3 C 12,4 C 0,0 km/h (0 Bft)
25.03.2021 09:00 3,6 C 6,1 C 6,7 C 13,5 C 13,5 C 9,9 C 88 % 90 % 1023,3 hPa 0,0 l/m 0,0 km/h (0 Bft) S-SO 157 5 min 1,8 C 13,5 C 0,0 km/h (0 Bft)
25.03.2021 09:05 4,0 C 6,1 C 6,9 C 14,0 C 14,0 C 10,0 C 88 % 90 % 1023,3 hPa 0,0 l/m 0,0 km/h (0 Bft) S-SO 157 5 min 2,2 C 14,0 C 0,0 km/h (0 Bft)
25.03.2021 09:10 4,4 C 6,1 C 7,3 C 14,9 C 14,9 C 10,5 C 88 % 89 % 1023,3 hPa 0,0 l/m 0,0 km/h (0 Bft) S-SO 157 5 min 2,6 C 14,9 C 0,0 km/h (0 Bft)
25.03.2021 09:15 4,8 C 6,1 C 7,8 C 14,8 C 14,8 C 10,0 C 88 % 88 % 1023,3 hPa 0,0 l/m 0,2 km/h (0 Bft) S-SO 157 5 min 3,0 C 14,8 C 0,0 km/h (0 Bft)
25.03.2021 09:20 5,7 C 6,1 C 8,5 C 14,9 C 14,9 C 9,2 C 88 % 87 % 1023,3 hPa 0,0 l/m 0,3 km/h (0 Bft) S-SO 157 5 min 3,9 C 14,9 C 2,3 km/h (1 Bft)
25.03.2021 09:25 6,1 C 6,1 C 9,0 C 14,6 C 14,6 C 8,5 C 88 % 85 % 1023,3 hPa 0,0 l/m 0,6 km/h (0 Bft) S-SO 157 5 min 4,3 C 14,6 C 0,0 km/h (0 Bft)
25.03.2021 09:30 7,1 C 6,1 C 9,6 C 14,0 C 14,0 C 6,9 C 88 % 83 % 1023,6 hPa 0,0 l/m 1,3 km/h (1 Bft) S-SO 157 5 min 5,2 C 14,0 C 4,8 km/h (1 Bft)
25.03.2021 09:35 7,9 C 6,0 C 10,3 C 14,1 C 14,1 C 6,2 C 88 % 82 % 1023,6 hPa 0,0 l/m 1,1 km/h (1 Bft) SW 225 5 min 6,0 C 14,1 C 2,3 km/h (1 Bft)
25.03.2021 09:40 9,0 C 6,0 C 11,2 C 14,1 C 14,1 C 5,1 C 87 % 78 % 1023,6 hPa 0,0 l/m 1,1 km/h (1 Bft) S 180 5 min 7,0 C 14,1 C 0,0 km/h (0 Bft)
25.03.2021 09:45 9,5 C 6,0 C 11,7 C 14,7 C 14,7 C 5,2 C 87 % 76 % 1023,6 hPa 0,0 l/m 1,6 km/h (1 Bft) S 180 5 min 7,4 C 14,7 C 3,7 km/h (1 Bft)
25.03.2021 09:50 10,0 C 6,0 C 12,0 C 14,5 C 14,5 C 4,5 C 83 % 72 % 1023,4 hPa 0,0 l/m 2,3 km/h (1 Bft) S-SW 202 5 min 7,2 C 14,5 C 5,8 km/h (2 Bft)
25.03.2021 09:55 10,1 C 6,0 C 12,3 C 14,2 C 14,2 C 4,1 C 80 % 68 % 1023,4 hPa 0,0 l/m 2,4 km/h (1 Bft) NO 45 5 min 6,8 C 14,2 C 0,0 km/h (0 Bft)
25.03.2021 10:00 10,4 C 6,1 C 12,3 C 14,4 C 14,4 C 4,0 C 78 % 67 % 1023,4 hPa 0,0 l/m 1,8 km/h (1 Bft) S-SO 157 5 min 6,7 C 14,4 C 6,4 km/h (2 Bft)
25.03.2021 10:05 10,7 C 6,1 C 12,3 C 14,9 C 14,9 C 4,2 C 76 % 67 % 1023,4 hPa 0,0 l/m 1,9 km/h (1 Bft) O-SO 112 5 min 6,6 C 14,9 C 2,9 km/h (1 Bft)
25.03.2021 10:10 11,1 C 6,1 C 12,1 C 14,7 C 14,7 C 3,6 C 73 % 66 % 1023,3 hPa 0,0 l/m 2,6 km/h (1 Bft) S 180 5 min 6,4 C 14,7 C 6,9 km/h (2 Bft)
25.03.2021 10:15 11,2 C 6,1 C 12,1 C 14,8 C 14,8 C 3,6 C 73 % 67 % 1023,3 hPa 0,0 l/m 1,4 km/h (1 Bft) O 90 5 min 6,5 C 14,8 C 0,0 km/h (0 Bft)
25.03.2021 10:20 11,5 C 6,1 C 11,9 C 14,5 C 14,5 C 3,0 C 70 % 67 % 1023,3 hPa 0,0 l/m 1,9 km/h (1 Bft) W-SW 247 0 min 6,2 C 14,5 C 4,0 km/h (1 Bft)
25.03.2021 10:25 11,4 C 6,1 C 11,7 C 14,1 C 14,1 C 2,7 C 69 % 67 % 1023,3 hPa 0,0 l/m 2,7 km/h (1 Bft) S 180 0 min 5,9 C 14,1 C 2,1 km/h (1 Bft)
25.03.2021 10:30 11,6 C 6,1 C 11,7 C 14,1 C 14,1 C 2,5 C 68 % 67 % 1023,3 hPa 0,0 l/m 3,2 km/h (1 Bft) SW 225 0 min 5,9 C 14,1 C 5,6 km/h (1 Bft)
25.03.2021 10:35 11,6 C 6,1 C 11,9 C 14,2 C 14,2 C 2,6 C 67 % 66 % 1023,3 hPa 0,0 l/m 3,2 km/h (1 Bft) S 180 0 min 5,7 C 14,2 C 1,9 km/h (1 Bft)
25.03.2021 10:40 11,8 C 6,2 C 12,1 C 15,0 C 15,0 C 3,2 C 66 % 66 % 1023,3 hPa 0,0 l/m 3,1 km/h (1 Bft) SW 225 0 min 5,7 C 15,0 C 3,2 km/h (1 Bft)
25.03.2021 10:45 12,0 C 6,2 C 12,1 C 14,9 C 14,9 C 2,9 C 66 % 66 % 1023,3 hPa 0,0 l/m 2,9 km/h (1 Bft) SW 225 0 min 5,8 C 14,9 C 2,3 km/h (1 Bft)
25.03.2021 10:50 12,1 C 6,2 C 12,2 C 14,7 C 14,7 C 2,6 C 65 % 66 % 1023,3 hPa 0,0 l/m 3,7 km/h (1 Bft) S 180 0 min 5,7 C 14,7 C 6,4 km/h (2 Bft)
25.03.2021 10:55 12,3 C 6,2 C 12,3 C 14,7 C 14,7 C 2,4 C 65 % 65 % 1023,3 hPa 0,0 l/m 4,2 km/h (1 Bft) S 180 0 min 5,9 C 14,7 C 8,7 km/h (2 Bft)
25.03.2021 11:00 12,4 C 6,2 C 12,4 C 14,8 C 14,8 C 2,4 C 64 % 65 % 1023,3 hPa 0,0 l/m 4,8 km/h (1 Bft) S-SW 202 0 min 5,8 C 14,8 C 7,7 km/h (2 Bft)
25.03.2021 11:05 12,5 C 6,2 C 12,7 C 15,0 C 15,0 C 2,5 C 63 % 65 % 1023,3 hPa 0,0 l/m 4,8 km/h (1 Bft) SW 225 0 min 5,7 C 15,0 C 4,8 km/h (1 Bft)
25.03.2021 11:10 12,7 C 6,2 C 13,8 C 15,2 C 15,2 C 2,5 C 62 % 63 % 1023,2 hPa 0,0 l/m 4,8 km/h (1 Bft) SW 225 0 min 5,6 C 15,2 C 5,1 km/h (1 Bft)
25.03.2021 11:15 12,8 C 6,3 C 14,9 C 15,3 C 15,3 C 2,5 C 61 % 59 % 1023,2 hPa 0,0 l/m 4,8 km/h (1 Bft) S-SW 202 0 min 5,5 C 15,3 C 3,7 km/h (1 Bft)
25.03.2021 11:20 13,0 C 6,3 C 16,1 C 16,0 C 16,0 C 3,0 C 61 % 56 % 1023,2 hPa 0,0 l/m 3,2 km/h (1 Bft) SW 225 0 min 5,7 C 16,0 C 9,7 km/h (2 Bft)
25.03.2021 11:25 13,3 C 6,3 C 16,6 C 16,5 C 16,5 C 3,2 C 61 % 55 % 1023,2 hPa 0,0 l/m 2,7 km/h (1 Bft) S-SO 157 0 min 5,9 C 16,5 C 2,9 km/h (1 Bft)
25.03.2021 11:30 13,5 C 6,3 C 17,9 C 16,8 C 16,8 C 3,3 C 60 % 51 % 1022,7 hPa 0,0 l/m 4,3 km/h (1 Bft) SW 225 5 min 5,9 C 16,8 C 10,0 km/h (2 Bft)
25.03.2021 11:35 13,6 C 6,3 C 18,4 C 17,1 C 17,1 C 3,5 C 59 % 50 % 1022,7 hPa 0,0 l/m 3,2 km/h (1 Bft) N-NW 337 5 min 5,7 C 17,1 C 2,1 km/h (1 Bft)
25.03.2021 11:40 14,0 C 6,4 C 19,3 C 18,1 C 18,1 C 4,1 C 59 % 47 % 1022,7 hPa 0,0 l/m 2,4 km/h (1 Bft) SO 135 5 min 6,1 C 18,1 C 0,0 km/h (0 Bft)
25.03.2021 11:45 14,1 C 6,4 C 19,1 C 18,3 C 18,3 C 4,2 C 57 % 47 % 1022,7 hPa 0,0 l/m 3,1 km/h (1 Bft) SW 225 5 min 5,7 C 18,3 C 4,7 km/h (1 Bft)
25.03.2021 11:50 14,0 C 6,4 C 19,0 C 18,7 C 18,7 C 4,7 C 56 % 47 % 1022,6 hPa 0,0 l/m 5,5 km/h (1 Bft) S 180 5 min 5,4 C 18,7 C 10,5 km/h (2 Bft)
25.03.2021 11:55 14,0 C 6,4 C 18,9 C 18,7 C 18,7 C 4,7 C 56 % 45 % 1022,6 hPa 0,0 l/m 6,4 km/h (2 Bft) S-SW 202 5 min 5,4 C 18,7 C 4,8 km/h (1 Bft)
25.03.2021 12:00 14,0 C 6,4 C 18,5 C 18,4 C 18,4 C 4,4 C 56 % 46 % 1022,6 hPa 0,0 l/m 7,1 km/h (2 Bft) S 180 5 min 5,4 C 18,4 C 10,9 km/h (2 Bft)
25.03.2021 12:05 14,0 C 6,5 C 18,6 C 18,3 C 18,3 C 4,3 C 57 % 46 % 1022,6 hPa 0,0 l/m 6,8 km/h (2 Bft) SW 225 5 min 5,6 C 18,3 C 7,1 km/h (2 Bft)
25.03.2021 12:10 14,0 C 6,5 C 18,6 C 18,3 C 18,3 C 4,3 C 57 % 46 % 1022,6 hPa 0,0 l/m 6,8 km/h (2 Bft) SW 225 5 min 5,6 C 18,3 C 7,1 km/h (2 Bft)
25.03.2021 12:15 14,3 C 6,5 C 18,6 C 18,3 C 18,3 C 4,0 C 57 % 46 % 1022,6 hPa 0,0 l/m 6,8 km/h (2 Bft) SW 225 5 min 5,9 C 18,3 C 7,1 km/h (2 Bft)
25.03.2021 12:20 14,4 C 6,5 C 17,4 C 18,9 C 18,9 C 4,5 C 57 % 50 % 1022,6 hPa 0,0 l/m 5,8 km/h (2 Bft) S 180 5 min 6,0 C 18,9 C 8,9 km/h (2 Bft)
25.03.2021 12:25 14,5 C 6,5 C 17,0 C 19,0 C 19,0 C 4,5 C 57 % 50 % 1022,6 hPa 0,0 l/m 6,3 km/h (2 Bft) SW 225 5 min 6,1 C 19,0 C 7,9 km/h (2 Bft)
25.03.2021 12:30 14,5 C 6,6 C 16,9 C 18,9 C 18,9 C 4,4 C 57 % 50 % 1022,6 hPa 0,0 l/m 7,4 km/h (2 Bft) W-SW 247 5 min 6,1 C 18,9 C 10,0 km/h (2 Bft)
25.03.2021 12:35 14,4 C 6,6 C 17,0 C 18,6 C 18,6 C 4,2 C 57 % 51 % 1022,6 hPa 0,0 l/m 6,9 km/h (2 Bft) SW 225 5 min 6,0 C 18,6 C 4,5 km/h (1 Bft)
25.03.2021 12:40 14,7 C 6,6 C 17,5 C 19,1 C 19,1 C 4,4 C 57 % 49 % 1022,6 hPa 0,0 l/m 5,6 km/h (1 Bft) NO 45 5 min 6,3 C 19,1 C 4,8 km/h (1 Bft)
25.03.2021 12:45 14,8 C 6,6 C 17,9 C 19,4 C 19,4 C 4,6 C 57 % 49 % 1022,6 hPa 0,0 l/m 5,0 km/h (1 Bft) SW 225 5 min 6,4 C 19,4 C 7,1 km/h (2 Bft)
25.03.2021 12:50 14,8 C 6,7 C 17,5 C 19,4 C 19,4 C 4,6 C 56 % 49 % 1022,6 hPa 0,0 l/m 5,1 km/h (1 Bft) SW 225 5 min 6,1 C 19,4 C 4,7 km/h (1 Bft)
25.03.2021 12:55 15,0 C 6,7 C 17,2 C 19,4 C 19,4 C 4,4 C 57 % 50 % 1022,6 hPa 0,0 l/m 4,5 km/h (1 Bft) S-SW 202 5 min 6,6 C 19,4 C 2,7 km/h (1 Bft)
25.03.2021 13:00 15,2 C 6,6 C 17,5 C 19,8 C 19,8 C 4,6 C 57 % 51 % 1022,6 hPa 0,0 l/m 3,1 km/h (1 Bft) SW 225 5 min 6,7 C 19,8 C 3,9 km/h (1 Bft)
25.03.2021 13:05 15,3 C 6,6 C 17,3 C 19,8 C 19,8 C 4,5 C 55 % 49 % 1022,6 hPa 0,0 l/m 4,2 km/h (1 Bft) SW 225 5 min 6,3 C 19,8 C 5,1 km/h (1 Bft)
25.03.2021 13:10 15,2 C 6,8 C 17,1 C 19,6 C 19,6 C 4,4 C 55 % 50 % 1022,4 hPa 0,0 l/m 5,1 km/h (1 Bft) SW 225 5 min 6,2 C 19,6 C 10,1 km/h (2 Bft)
25.03.2021 13:15 15,2 C 6,7 C 16,9 C 19,5 C 19,5 C 4,3 C 55 % 50 % 1022,4 hPa 0,0 l/m 5,0 km/h (1 Bft) S-SW 202 5 min 6,2 C 19,5 C 2,9 km/h (1 Bft)
25.03.2021 13:20 15,3 C 6,8 C 16,6 C 19,3 C 19,3 C 4,0 C 54 % 49 % 1022,4 hPa 0,0 l/m 5,5 km/h (1 Bft) SW 225 5 min 6,0 C 19,3 C 6,3 km/h (2 Bft)
25.03.2021 13:25 15,4 C 6,8 C 16,5 C 19,2 C 19,2 C 3,8 C 54 % 51 % 1022,4 hPa 0,0 l/m 5,5 km/h (1 Bft) N-NW 337 5 min 6,1 C 19,2 C 11,4 km/h (2 Bft)
25.03.2021 13:30 15,4 C 6,8 C 16,3 C 19,3 C 19,3 C 3,9 C 53 % 51 % 1022,2 hPa 0,0 l/m 6,3 km/h (2 Bft) W-SW 247 5 min 5,9 C 19,3 C 11,9 km/h (2 Bft)
25.03.2021 13:35 15,6 C 6,8 C 16,3 C 19,3 C 19,3 C 3,7 C 53 % 51 % 1022,2 hPa 0,0 l/m 6,0 km/h (2 Bft) SO 135 5 min 6,1 C 19,3 C 5,6 km/h (1 Bft)
25.03.2021 13:40 15,9 C 6,8 C 16,3 C 20,1 C 20,1 C 4,2 C 54 % 51 % 1022,2 hPa 0,0 l/m 4,2 km/h (1 Bft) NW 315 5 min 6,6 C 20,1 C 2,9 km/h (1 Bft)
25.03.2021 13:45 15,8 C 6,9 C 16,2 C 20,2 C 20,2 C 4,4 C 53 % 51 % 1022,2 hPa 0,0 l/m 4,5 km/h (1 Bft) SW 225 5 min 6,2 C 20,2 C 4,0 km/h (1 Bft)
25.03.2021 13:50 16,0 C 6,9 C 16,2 C 20,2 C 20,2 C 4,2 C 52 % 50 % 1021,9 hPa 0,0 l/m 5,0 km/h (1 Bft) SW 225 5 min 6,2 C 20,2 C 4,5 km/h (1 Bft)
25.03.2021 13:55 16,0 C 6,9 C 16,1 C 20,1 C 20,1 C 4,1 C 52 % 51 % 1021,9 hPa 0,0 l/m 5,0 km/h (1 Bft) S 180 5 min 6,2 C 20,1 C 7,1 km/h (2 Bft)
25.03.2021 14:00 16,0 C 6,9 C 16,1 C 19,9 C 19,9 C 3,9 C 51 % 51 % 1021,9 hPa 0,0 l/m 6,1 km/h (2 Bft) SW 225 5 min 5,9 C 19,9 C 8,4 km/h (2 Bft)
25.03.2021 14:05 16,0 C 7,0 C 16,1 C 20,1 C 20,1 C 4,1 C 51 % 51 % 1021,9 hPa 0,0 l/m 6,3 km/h (2 Bft) S-SW 202 5 min 5,9 C 20,1 C 9,8 km/h (2 Bft)
25.03.2021 14:10 16,1 C 7,0 C 16,0 C 19,7 C 19,7 C 3,6 C 51 % 51 % 1022,1 hPa 0,0 l/m 5,0 km/h (1 Bft) S 180 5 min 6,0 C 19,7 C 7,9 km/h (2 Bft)
25.03.2021 14:15 16,1 C 7,0 C 16,0 C 20,0 C 20,0 C 3,9 C 51 % 51 % 1022,1 hPa 0,0 l/m 5,0 km/h (1 Bft) W-SW 247 5 min 6,0 C 20,0 C 5,5 km/h (1 Bft)
25.03.2021 14:20 16,3 C 7,1 C 16,0 C 20,4 C 20,4 C 4,1 C 51 % 51 % 1022,1 hPa 0,0 l/m 4,7 km/h (1 Bft) S-SW 202 5 min 6,1 C 20,4 C 8,7 km/h (2 Bft)
25.03.2021 14:25 16,3 C 7,1 C 16,0 C 20,2 C 20,2 C 3,9 C 51 % 51 % 1022,1 hPa 0,0 l/m 4,5 km/h (1 Bft) W-SW 247 5 min 6,1 C 20,2 C 6,3 km/h (2 Bft)
25.03.2021 14:30 16,3 C 7,2 C 16,0 C 19,7 C 19,7 C 3,4 C 50 % 51 % 1021,7 hPa 0,0 l/m 5,6 km/h (1 Bft) SW 225 5 min 5,9 C 19,7 C 13,7 km/h (3 Bft)
25.03.2021 14:35 16,3 C 7,2 C 16,0 C 19,9 C 19,9 C 3,6 C 51 % 51 % 1021,7 hPa 0,0 l/m 5,5 km/h (1 Bft) W-SW 247 5 min 6,1 C 19,9 C 6,0 km/h (2 Bft)
25.03.2021 14:40 16,2 C 7,2 C 16,1 C 19,7 C 19,7 C 3,5 C 49 % 51 % 1021,7 hPa 0,0 l/m 5,3 km/h (1 Bft) SW 225 5 min 5,5 C 19,7 C 5,1 km/h (1 Bft)
25.03.2021 14:45 16,3 C 7,2 C 16,1 C 19,8 C 19,8 C 3,5 C 50 % 51 % 1021,7 hPa 0,0 l/m 5,0 km/h (1 Bft) SO 135 5 min 5,9 C 19,8 C 0,0 km/h (0 Bft)
25.03.2021 14:50 16,5 C 7,3 C 16,2 C 20,4 C 20,4 C 3,9 C 51 % 51 % 1021,4 hPa 0,0 l/m 2,7 km/h (1 Bft) SW 225 5 min 6,3 C 20,4 C 5,1 km/h (1 Bft)
25.03.2021 14:55 16,6 C 7,3 C 16,2 C 20,4 C 20,4 C 3,8 C 50 % 51 % 1021,4 hPa 0,0 l/m 2,7 km/h (1 Bft) SW 225 5 min 6,1 C 20,4 C 6,8 km/h (2 Bft)
25.03.2021 15:00 16,7 C 7,3 C 16,2 C 20,5 C 20,5 C 3,8 C 50 % 52 % 1021,4 hPa 0,0 l/m 3,5 km/h (1 Bft) S 180 5 min 6,2 C 20,5 C 4,3 km/h (1 Bft)
25.03.2021 15:05 16,6 C 7,3 C 16,1 C 20,4 C 20,4 C 3,8 C 50 % 51 % 1021,4 hPa 0,0 l/m 2,9 km/h (1 Bft) W 270 5 min 6,1 C 20,4 C 0,0 km/h (0 Bft)
25.03.2021 15:10 16,5 C 7,3 C 15,9 C 19,3 C 19,3 C 2,8 C 49 % 51 % 1021,4 hPa 0,0 l/m 3,4 km/h (1 Bft) W-SW 247 0 min 5,8 C 19,3 C 4,5 km/h (1 Bft)
25.03.2021 15:15 16,4 C 7,4 C 15,9 C 18,9 C 18,9 C 2,5 C 49 % 51 % 1021,4 hPa 0,0 l/m 3,2 km/h (1 Bft) S 180 0 min 5,7 C 18,9 C 2,4 km/h (1 Bft)
25.03.2021 15:20 16,5 C 7,4 C 16,0 C 19,4 C 19,4 C 2,9 C 50 % 51 % 1021,4 hPa 0,0 l/m 1,8 km/h (1 Bft) W-SW 247 0 min 6,0 C 19,4 C 1,6 km/h (1 Bft)
25.03.2021 15:25 16,7 C 7,4 C 16,0 C 19,6 C 19,6 C 2,9 C 49 % 52 % 1021,4 hPa 0,0 l/m 1,9 km/h (1 Bft) NW 315 0 min 5,9 C 19,6 C 0,0 km/h (0 Bft)
25.03.2021 15:30 16,7 C 7,4 C 15,9 C 19,9 C 19,9 C 3,2 C 50 % 52 % 1021,2 hPa 0,0 l/m 2,3 km/h (1 Bft) S-SW 202 0 min 6,2 C 19,9 C 5,5 km/h (1 Bft)
25.03.2021 15:35 16,7 C 7,4 C 16,0 C 19,8 C 19,8 C 3,1 C 50 % 53 % 1021,2 hPa 0,0 l/m 2,3 km/h (1 Bft) SW 225 0 min 6,2 C 19,8 C 3,7 km/h (1 Bft)
25.03.2021 15:40 16,6 C 7,5 C 16,0 C 19,6 C 19,6 C 3,0 C 49 % 52 % 1021,2 hPa 0,0 l/m 3,1 km/h (1 Bft) W-SW 247 0 min 5,8 C 19,6 C 2,6 km/h (1 Bft)
25.03.2021 15:45 16,6 C 7,5 C 16,0 C 19,4 C 19,4 C 2,8 C 48 % 51 % 1021,2 hPa 0,0 l/m 3,1 km/h (1 Bft) S 180 0 min 5,5 C 19,4 C 4,2 km/h (1 Bft)
25.03.2021 15:50 16,6 C 7,5 C 15,9 C 19,0 C 19,0 C 2,4 C 49 % 51 % 1021,3 hPa 0,0 l/m 2,4 km/h (1 Bft) S 180 0 min 5,8 C 19,0 C 4,5 km/h (1 Bft)
25.03.2021 15:55 16,5 C 7,5 C 15,8 C 18,7 C 18,7 C 2,2 C 49 % 51 % 1021,3 hPa 0,0 l/m 3,1 km/h (1 Bft) SW 225 0 min 5,8 C 18,7 C 4,5 km/h (1 Bft)
25.03.2021 16:00 16,2 C 7,5 C 15,6 C 17,9 C 17,9 C 1,7 C 50 % 52 % 1021,3 hPa 0,0 l/m 3,4 km/h (1 Bft) SW 225 0 min 5,8 C 17,9 C 2,4 km/h (1 Bft)
25.03.2021 16:05 16,2 C 7,7 C 15,4 C 17,7 C 17,7 C 1,5 C 50 % 54 % 1021,3 hPa 0,0 l/m 2,1 km/h (1 Bft) N-NW 337 0 min 5,8 C 17,7 C 0,0 km/h (0 Bft)
25.03.2021 16:10 16,1 C 7,7 C 15,3 C 17,4 C 17,4 C 1,3 C 50 % 54 % 1021,1 hPa 0,0 l/m 1,1 km/h (1 Bft) SW 225 0 min 5,7 C 17,4 C 2,9 km/h (1 Bft)
25.03.2021 16:15 16,1 C 7,7 C 15,1 C 17,2 C 17,2 C 1,1 C 50 % 54 % 1021,1 hPa 0,0 l/m 1,1 km/h (1 Bft) S 180 0 min 5,7 C 17,2 C 1,9 km/h (1 Bft)
25.03.2021 16:20 16,0 C 7,7 C 15,0 C 16,9 C 16,9 C 0,9 C 50 % 54 % 1021,1 hPa 0,0 l/m 1,1 km/h (1 Bft) S-SW 202 0 min 5,6 C 16,9 C 0,0 km/h (0 Bft)
25.03.2021 16:25 16,0 C 7,7 C 14,9 C 16,8 C 16,8 C 0,8 C 51 % 55 % 1021,1 hPa 0,0 l/m 0,6 km/h (0 Bft) S-SW 202 0 min 5,9 C 16,8 C 1,8 km/h (1 Bft)
25.03.2021 16:30 16,0 C 7,8 C 14,9 C 16,8 C 16,8 C 0,8 C 51 % 56 % 1021,1 hPa 0,0 l/m 0,3 km/h (0 Bft) SW 225 0 min 5,9 C 16,8 C 0,0 km/h (0 Bft)
25.03.2021 16:35 16,0 C 7,8 C 14,8 C 16,8 C 16,8 C 0,8 C 52 % 57 % 1021,1 hPa 0,0 l/m 0,3 km/h (0 Bft) NW 315 0 min 6,2 C 16,8 C 0,0 km/h (0 Bft)
25.03.2021 16:40 16,0 C 7,8 C 14,7 C 16,7 C 16,7 C 0,7 C 51 % 56 % 1021,1 hPa 0,0 l/m 0,2 km/h (0 Bft) W 270 0 min 5,9 C 16,7 C 0,0 km/h (0 Bft)
25.03.2021 16:45 15,9 C 7,8 C 14,7 C 16,5 C 16,5 C 0,6 C 51 % 56 % 1021,1 hPa 0,0 l/m 0,2 km/h (0 Bft) NW 315 0 min 5,8 C 16,5 C 0,0 km/h (0 Bft)
25.03.2021 16:50 15,9 C 7,8 C 14,5 C 16,3 C 16,3 C 0,4 C 52 % 56 % 1020,9 hPa 0,0 l/m 0,0 km/h (0 Bft) W-SW 247 0 min 6,1 C 16,3 C 0,0 km/h (0 Bft)
25.03.2021 16:55 15,9 C 7,8 C 14,5 C 16,2 C 16,2 C 0,3 C 52 % 55 % 1020,9 hPa 0,0 l/m 0,0 km/h (0 Bft) NW 315 0 min 6,1 C 16,2 C 0,0 km/h (0 Bft)
25.03.2021 17:00 15,7 C 7,9 C 14,5 C 16,0 C 16,0 C 0,3 C 52 % 55 % 1020,9 hPa 0,0 l/m 0,3 km/h (0 Bft) NW 315 0 min 5,9 C 16,0 C 0,0 km/h (0 Bft)
25.03.2021 17:05 15,7 C 7,9 C 14,4 C 15,8 C 15,8 C 0,1 C 53 % 57 % 1020,9 hPa 0,0 l/m 0,3 km/h (0 Bft) N-NW 337 0 min 6,1 C 15,8 C 0,0 km/h (0 Bft)
25.03.2021 17:10 15,3 C 7,9 C 14,3 C 15,6 C 15,6 C 0,3 C 53 % 57 % 1021,3 hPa 0,0 l/m 0,2 km/h (0 Bft) NW 315 0 min 5,8 C 15,6 C 0,0 km/h (0 Bft)
25.03.2021 17:15 15,3 C 7,9 C 14,1 C 15,5 C 15,5 C 0,2 C 54 % 58 % 1021,3 hPa 0,0 l/m 0,2 km/h (0 Bft) NO 45 0 min 6,0 C 15,5 C 0,0 km/h (0 Bft)
25.03.2021 17:20 15,1 C 7,9 C 14,0 C 15,3 C 15,3 C 0,2 C 55 % 58 % 1021,3 hPa 0,0 l/m 0,0 km/h (0 Bft) NO 45 0 min 6,1 C 15,3 C 0,0 km/h (0 Bft)
25.03.2021 17:25 15,1 C 7,9 C 13,9 C 15,2 C 15,2 C 0,1 C 55 % 59 % 1021,3 hPa 0,0 l/m 0,0 km/h (0 Bft) NO 45 0 min 6,1 C 15,2 C 0,0 km/h (0 Bft)
25.03.2021 17:30 15,0 C 7,9 C 13,8 C 15,2 C 15,2 C 0,2 C 55 % 59 % 1021,1 hPa 0,0 l/m 0,2 km/h (0 Bft) NO 45 0 min 6,0 C 15,2 C 0,0 km/h (0 Bft)
25.03.2021 17:35 14,9 C 8,0 C 13,7 C 15,0 C 15,0 C 0,1 C 55 % 60 % 1021,1 hPa 0,0 l/m 0,2 km/h (0 Bft) NO 45 0 min 5,9 C 15,0 C 0,0 km/h (0 Bft)
25.03.2021 17:40 14,9 C 8,0 C 13,5 C 14,9 C 14,9 C 0,0 C 56 % 60 % 1021,1 hPa 0,0 l/m 0,0 km/h (0 Bft) NO 45 0 min 6,2 C 14,9 C 0,0 km/h (0 Bft)
25.03.2021 17:45 14,7 C 8,0 C 13,5 C 14,7 C 14,7 C 0,0 C 56 % 60 % 1021,1 hPa 0,0 l/m 0,0 km/h (0 Bft) NO 45 0 min 6,0 C 14,7 C 0,0 km/h (0 Bft)
25.03.2021 17:50 14,7 C 8,0 C 13,3 C 14,7 C 14,6 C 0,0 C 57 % 61 % 1021,1 hPa 0,0 l/m 0,0 km/h (0 Bft) NO 45 0 min 6,3 C 14,6 C 0,0 km/h (0 Bft)
25.03.2021 17:55 14,5 C 8,0 C 13,3 C 14,7 C 14,7 C 0,2 C 57 % 61 % 1021,1 hPa 0,0 l/m 0,0 km/h (0 Bft) NO 45 0 min 6,1 C 14,7 C 0,0 km/h (0 Bft)
25.03.2021 18:00 14,4 C 8,0 C 13,2 C 14,6 C 14,6 C 0,2 C 57 % 61 % 1021,1 hPa 0,0 l/m 0,0 km/h (0 Bft) NO 45 0 min 6,0 C 14,6 C 0,0 km/h (0 Bft)
25.03.2021 18:05 14,4 C 8,0 C 13,1 C 14,5 C 14,5 C 0,1 C 57 % 62 % 1021,1 hPa 0,0 l/m 0,0 km/h (0 Bft) NO 45 0 min 6,0 C 14,5 C 0,0 km/h (0 Bft)
25.03.2021 18:10 14,2 C 8,0 C 12,9 C 14,3 C 14,3 C 0,1 C 58 % 62 % 1021,1 hPa 0,0 l/m 0,5 km/h (0 Bft) NO 45 0 min 6,1 C 14,3 C 1,8 km/h (1 Bft)
25.03.2021 18:15 14,3 C 8,0 C 12,8 C 14,2 C 14,1 C 0,0 C 58 % 63 % 1021,1 hPa 0,0 l/m 0,5 km/h (0 Bft) NO 45 0 min 6,2 C 14,1 C 0,0 km/h (0 Bft)
25.03.2021 18:20 14,1 C 8,1 C 12,4 C 14,0 C 13,8 C 0,0 C 58 % 64 % 1021,1 hPa 0,0 l/m 0,0 km/h (0 Bft) NO 45 0 min 6,0 C 13,8 C 0,0 km/h (0 Bft)
25.03.2021 18:25 13,9 C 8,2 C 12,3 C 13,8 C 13,6 C 0,0 C 59 % 65 % 1021,1 hPa 0,0 l/m 0,0 km/h (0 Bft) NO 45 0 min 6,0 C 13,6 C 0,0 km/h (0 Bft)
25.03.2021 18:30 13,7 C 8,2 C 12,0 C 13,5 C 13,2 C 0,0 C 60 % 66 % 1021,2 hPa 0,0 l/m 0,0 km/h (0 Bft) NO 45 0 min 6,1 C 13,2 C 0,0 km/h (0 Bft)
25.03.2021 18:35 13,5 C 8,2 C 11,7 C 13,3 C 12,8 C 0,0 C 61 % 67 % 1021,2 hPa 0,0 l/m 0,0 km/h (0 Bft) NO 45 0 min 6,1 C 12,8 C 0,0 km/h (0 Bft)
25.03.2021 18:40 13,2 C 8,2 C 11,4 C 13,0 C 12,5 C 0,0 C 62 % 68 % 1021,2 hPa 0,0 l/m 0,5 km/h (0 Bft) NO 45 0 min 6,1 C 12,5 C 1,9 km/h (1 Bft)
25.03.2021 18:45 13,1 C 8,2 C 11,1 C 12,8 C 12,3 C 0,0 C 63 % 69 % 1021,2 hPa 0,0 l/m 0,8 km/h (0 Bft) O-NO 67 0 min 6,2 C 12,3 C 1,9 km/h (1 Bft)
25.03.2021 18:50 12,7 C 8,2 C 10,8 C 12,5 C 12,0 C 0,0 C 64 % 71 % 1021,6 hPa 0,0 l/m 1,4 km/h (1 Bft) NO 45 0 min 6,1 C 12,0 C 0,0 km/h (0 Bft)
25.03.2021 18:55 12,6 C 8,2 C 10,7 C 12,3 C 11,8 C 0,0 C 65 % 71 % 1021,6 hPa 0,0 l/m 1,0 km/h (0 Bft) NO 45 0 min 6,2 C 11,8 C 0,0 km/h (0 Bft)
25.03.2021 19:00 12,4 C 8,2 C 10,6 C 12,1 C 11,5 C 0,0 C 65 % 72 % 1021,6 hPa 0,0 l/m 0,0 km/h (0 Bft) NO 45 0 min 6,0 C 11,5 C 0,0 km/h (0 Bft)
25.03.2021 19:05 12,3 C 8,2 C 10,4 C 12,0 C 11,4 C 0,0 C 66 % 73 % 1021,6 hPa 0,0 l/m 0,0 km/h (0 Bft) NO 45 0 min 6,1 C 11,4 C 0,0 km/h (0 Bft)
25.03.2021 19:10 11,9 C 8,2 C 10,2 C 11,7 C 11,2 C 0,0 C 67 % 73 % 1021,2 hPa 0,0 l/m 0,0 km/h (0 Bft) NO 45 0 min 6,0 C 11,2 C 0,0 km/h (0 Bft)
25.03.2021 19:15 11,7 C 8,2 C 10,1 C 11,5 C 11,0 C 0,0 C 67 % 73 % 1021,2 hPa 0,0 l/m 0,0 km/h (0 Bft) NO 45 0 min 5,8 C 11,0 C 0,0 km/h (0 Bft)
25.03.2021 19:20 11,5 C 8,2 C 9,9 C 11,2 C 10,7 C 0,0 C 67 % 74 % 1021,2 hPa 0,0 l/m 0,0 km/h (0 Bft) NO 45 0 min 5,6 C 10,7 C 0,0 km/h (0 Bft)
25.03.2021 19:25 11,3 C 8,2 C 9,8 C 11,0 C 10,5 C 0,0 C 67 % 74 % 1021,2 hPa 0,0 l/m 0,0 km/h (0 Bft) NO 45 0 min 5,4 C 10,5 C 0,0 km/h (0 Bft)
25.03.2021 19:30 11,1 C 8,3 C 9,7 C 10,8 C 10,3 C 0,0 C 67 % 74 % 1021,6 hPa 0,0 l/m 0,0 km/h (0 Bft) NO 45 0 min 5,2 C 10,3 C 0,0 km/h (0 Bft)
25.03.2021 19:35 11,0 C 8,3 C 9,6 C 10,8 C 10,3 C 0,0 C 68 % 75 % 1021,6 hPa 0,0 l/m 0,0 km/h (0 Bft) NO 45 0 min 5,3 C 10,3 C 0,0 km/h (0 Bft)
25.03.2021 19:40 10,8 C 8,3 C 9,5 C 10,7 C 10,4 C 0,0 C 69 % 76 % 1021,6 hPa 0,0 l/m 0,0 km/h (0 Bft) NO 45 0 min 5,3 C 10,4 C 0,0 km/h (0 Bft)
25.03.2021 19:45 10,8 C 8,3 C 9,4 C 10,6 C 10,3 C 0,0 C 70 % 76 % 1021,6 hPa 0,0 l/m 0,0 km/h (0 Bft) NO 45 0 min 5,6 C 10,3 C 0,0 km/h (0 Bft)
25.03.2021 19:50 10,6 C 8,3 C 9,4 C 10,5 C 10,3 C 0,0 C 70 % 76 % 1021,7 hPa 0,0 l/m 0,0 km/h (0 Bft) NO 45 0 min 5,4 C 10,3 C 0,0 km/h (0 Bft)
25.03.2021 19:55 10,6 C 8,3 C 9,3 C 10,5 C 10,3 C 0,0 C 71 % 77 % 1021,7 hPa 0,0 l/m 0,0 km/h (0 Bft) NO 45 0 min 5,6 C 10,3 C 0,0 km/h (0 Bft)
25.03.2021 20:00 10,5 C 8,3 C 9,3 C 10,4 C 10,3 C 0,0 C 71 % 77 % 1021,7 hPa 0,0 l/m 0,0 km/h (0 Bft) NO 45 0 min 5,5 C 10,3 C 0,0 km/h (0 Bft)
25.03.2021 20:05 10,4 C 8,3 C 9,3 C 10,4 C 10,3 C 0,0 C 72 % 78 % 1021,7 hPa 0,0 l/m 0,0 km/h (0 Bft) NO 45 0 min 5,6 C 10,3 C 0,0 km/h (0 Bft)
25.03.2021 20:10 10,4 C 8,3 C 9,3 C 10,4 C 10,3 C 0,0 C 72 % 78 % 1021,9 hPa 0,0 l/m 0,0 km/h (0 Bft) NO 45 0 min 5,6 C 10,3 C 0,0 km/h (0 Bft)
25.03.2021 20:15 10,4 C 8,3 C 9,3 C 10,4 C 10,3 C 0,0 C 73 % 78 % 1021,9 hPa 0,0 l/m 0,0 km/h (0 Bft) NO 45 0 min 5,8 C 10,3 C 0,0 km/h (0 Bft)
25.03.2021 20:20 10,3 C 8,3 C 9,2 C 10,3 C 10,2 C 0,0 C 73 % 78 % 1021,9 hPa 0,0 l/m 0,0 km/h (0 Bft) NO 45 0 min 5,7 C 10,2 C 0,0 km/h (0 Bft)
25.03.2021 20:25 10,3 C 8,3 C 9,2 C 10,2 C 10,1 C 0,0 C 74 % 79 % 1021,9 hPa 0,0 l/m 0,0 km/h (0 Bft) NO 45 0 min 5,9 C 10,1 C 0,0 km/h (0 Bft)
25.03.2021 20:30 10,3 C 8,3 C 9,1 C 10,2 C 10,0 C 0,0 C 74 % 79 % 1021,9 hPa 0,0 l/m 0,0 km/h (0 Bft) NO 45 0 min 5,9 C 10,0 C 0,0 km/h (0 Bft)
25.03.2021 20:35 10,1 C 8,3 C 9,0 C 10,0 C 9,9 C 0,0 C 74 % 79 % 1021,9 hPa 0,0 l/m 0,0 km/h (0 Bft) NO 45 0 min 5,7 C 9,9 C 0,0 km/h (0 Bft)
25.03.2021 20:40 10,1 C 8,3 C 8,8 C 10,0 C 9,7 C 0,0 C 74 % 79 % 1021,9 hPa 0,0 l/m 0,0 km/h (0 Bft) NO 45 0 min 5,7 C 9,7 C 0,0 km/h (0 Bft)
25.03.2021 20:45 9,9 C 8,3 C 8,7 C 9,7 C 9,4 C 0,0 C 75 % 79 % 1021,9 hPa 0,0 l/m 0,0 km/h (0 Bft) NO 45 0 min 5,7 C 9,4 C 0,0 km/h (0 Bft)
25.03.2021 20:50 9,7 C 8,5 C 8,5 C 9,5 C 9,0 C 0,0 C 75 % 80 % 1022,0 hPa 0,0 l/m 0,0 km/h (0 Bft) NO 45 0 min 5,5 C 9,0 C 0,0 km/h (0 Bft)
25.03.2021 20:55 9,6 C 8,5 C 8,4 C 9,4 C 8,9 C 0,0 C 75 % 80 % 1022,0 hPa 0,0 l/m 0,0 km/h (0 Bft) NO 45 0 min 5,4 C 8,9 C 0,0 km/h (0 Bft)
25.03.2021 21:00 9,5 C 8,5 C 8,3 C 9,3 C 8,8 C 0,0 C 76 % 81 % 1022,0 hPa 0,0 l/m 0,0 km/h (0 Bft) NO 45 0 min 5,5 C 8,8 C 0,0 km/h (0 Bft)
25.03.2021 21:05 9,5 C 8,5 C 8,4 C 9,2 C 8,7 C 0,0 C 76 % 81 % 1022,0 hPa 0,0 l/m 0,0 km/h (0 Bft) NO 45 0 min 5,5 C 8,7 C 0,0 km/h (0 Bft)
25.03.2021 21:10 9,3 C 8,5 C 8,3 C 9,1 C 8,7 C 0,0 C 76 % 81 % 1022,4 hPa 0,0 l/m 0,0 km/h (0 Bft) NO 45 0 min 5,3 C 8,7 C 0,0 km/h (0 Bft)
25.03.2021 21:15 9,3 C 8,5 C 8,1 C 9,1 C 8,7 C 0,0 C 77 % 81 % 1022,4 hPa 0,0 l/m 0,0 km/h (0 Bft) NO 45 0 min 5,5 C 8,7 C 0,0 km/h (0 Bft)
25.03.2021 21:20 9,2 C 8,5 C 8,0 C 9,0 C 8,7 C 0,0 C 77 % 82 % 1022,4 hPa 0,0 l/m 0,0 km/h (0 Bft) NO 45 0 min 5,4 C 8,7 C 0,0 km/h (0 Bft)
25.03.2021 21:25 9,1 C 8,5 C 7,9 C 9,0 C 8,8 C 0,0 C 78 % 82 % 1022,4 hPa 0,0 l/m 0,0 km/h (0 Bft) NO 45 0 min 5,5 C 8,8 C 0,0 km/h (0 Bft)
25.03.2021 21:30 9,0 C 8,5 C 8,0 C 8,9 C 8,8 C 0,0 C 78 % 82 % 1022,1 hPa 0,0 l/m 0,0 km/h (0 Bft) NO 45 0 min 5,4 C 8,8 C 0,0 km/h (0 Bft)
25.03.2021 21:35 9,0 C 8,5 C 8,0 C 8,9 C 8,7 C 0,0 C 78 % 83 % 1022,1 hPa 0,0 l/m 0,0 km/h (0 Bft) NO 45 0 min 5,4 C 8,7 C 0,0 km/h (0 Bft)
25.03.2021 21:40 8,9 C 8,5 C 7,9 C 8,8 C 8,7 C 0,0 C 78 % 83 % 1022,1 hPa 0,0 l/m 0,0 km/h (0 Bft) NO 45 0 min 5,3 C 8,7 C 0,0 km/h (0 Bft)
25.03.2021 21:45 8,9 C 8,5 C 7,9 C 8,8 C 8,6 C 0,0 C 78 % 83 % 1022,1 hPa 0,0 l/m 0,0 km/h (0 Bft) NO 45 0 min 5,3 C 8,6 C 0,0 km/h (0 Bft)
25.03.2021 21:50 8,8 C 8,5 C 7,9 C 8,8 C 8,7 C 0,0 C 79 % 83 % 1022,2 hPa 0,0 l/m 0,0 km/h (0 Bft) NO 45 0 min 5,4 C 8,7 C 0,0 km/h (0 Bft)
25.03.2021 21:55 8,9 C 8,5 C 7,9 C 8,8 C 8,7 C 0,0 C 79 % 83 % 1022,2 hPa 0,0 l/m 0,0 km/h (0 Bft) NO 45 0 min 5,5 C 8,7 C 0,0 km/h (0 Bft)
25.03.2021 22:00 8,8 C 8,5 C 7,9 C 8,8 C 8,7 C 0,0 C 79 % 83 % 1022,2 hPa 0,0 l/m 0,0 km/h (0 Bft) NO 45 0 min 5,4 C 8,7 C 0,0 km/h (0 Bft)
25.03.2021 22:05 8,7 C 8,5 C 7,8 C 8,7 C 8,7 C 0,0 C 79 % 83 % 1022,2 hPa 0,0 l/m 0,0 km/h (0 Bft) NO 45 0 min 5,3 C 8,7 C 0,0 km/h (0 Bft)
25.03.2021 22:10 8,6 C 8,5 C 7,8 C 8,6 C 8,6 C 0,0 C 79 % 84 % 1022,2 hPa 0,0 l/m 0,0 km/h (0 Bft) NO 45 0 min 5,2 C 8,6 C 0,0 km/h (0 Bft)
25.03.2021 22:15 8,7 C 8,5 C 7,8 C 8,7 C 8,6 C 0,0 C 80 % 84 % 1022,2 hPa 0,0 l/m 0,0 km/h (0 Bft) NO 45 0 min 5,4 C 8,6 C 0,0 km/h (0 Bft)
25.03.2021 22:20 8,7 C 8,5 C 7,9 C 8,7 C 8,7 C 0,0 C 80 % 84 % 1022,2 hPa 0,0 l/m 0,0 km/h (0 Bft) NO 45 0 min 5,4 C 8,7 C 0,0 km/h (0 Bft)
25.03.2021 22:25 8,6 C 8,5 C 7,9 C 8,7 C 8,7 C 0,1 C 80 % 84 % 1022,2 hPa 0,0 l/m 0,2 km/h (0 Bft) NO 45 0 min 5,3 C 8,7 C 0,0 km/h (0 Bft)
25.03.2021 22:30 8,5 C 8,5 C 7,9 C 8,5 C 8,4 C 0,0 C 80 % 84 % 1022,1 hPa 0,0 l/m 0,2 km/h (0 Bft) NO 45 0 min 5,3 C 8,4 C 0,0 km/h (0 Bft)
25.03.2021 22:35 8,5 C 8,5 C 7,8 C 8,5 C 8,4 C 0,0 C 80 % 84 % 1022,1 hPa 0,0 l/m 0,0 km/h (0 Bft) NO 45 0 min 5,3 C 8,4 C 0,0 km/h (0 Bft)
25.03.2021 22:40 8,4 C 8,5 C 7,6 C 8,3 C 8,2 C 0,0 C 81 % 84 % 1022,1 hPa 0,0 l/m 0,0 km/h (0 Bft) NO 45 0 min 5,3 C 8,2 C 0,0 km/h (0 Bft)
25.03.2021 22:45 8,4 C 8,5 C 7,6 C 8,3 C 8,1 C 0,0 C 81 % 84 % 1022,1 hPa 0,0 l/m 0,0 km/h (0 Bft) NO 45 0 min 5,3 C 8,1 C 0,0 km/h (0 Bft)
25.03.2021 22:50 8,3 C 8,5 C 7,5 C 8,2 C 8,0 C 0,0 C 80 % 84 % 1022,2 hPa 0,0 l/m 0,0 km/h (0 Bft) NO 45 0 min 5,1 C 8,0 C 0,0 km/h (0 Bft)
25.03.2021 22:55 8,3 C 8,5 C 7,4 C 8,1 C 7,8 C 0,0 C 80 % 84 % 1022,2 hPa 0,0 l/m 0,0 km/h (0 Bft) NO 45 0 min 5,1 C 7,8 C 0,0 km/h (0 Bft)
25.03.2021 23:00 8,1 C 8,5 C 7,1 C 7,9 C 7,5 C 0,0 C 80 % 85 % 1022,2 hPa 0,0 l/m 0,0 km/h (0 Bft) NO 45 0 min 4,9 C 7,5 C 0,0 km/h (0 Bft)
25.03.2021 23:05 8,0 C 8,6 C 7,0 C 7,7 C 7,2 C 0,0 C 80 % 85 % 1022,2 hPa 0,0 l/m 0,0 km/h (0 Bft) NO 45 0 min 4,8 C 7,2 C 0,0 km/h (0 Bft)
25.03.2021 23:10 7,9 C 8,6 C 6,7 C 7,6 C 7,0 C 0,0 C 81 % 85 % 1022,2 hPa 0,0 l/m 0,0 km/h (0 Bft) NO 45 0 min 4,8 C 7,0 C 0,0 km/h (0 Bft)
25.03.2021 23:15 7,8 C 8,6 C 6,7 C 7,5 C 6,8 C 0,0 C 81 % 85 % 1022,2 hPa 0,0 l/m 0,0 km/h (0 Bft) NO 45 0 min 4,7 C 6,8 C 0,0 km/h (0 Bft)
25.03.2021 23:20 7,6 C 8,6 C 6,5 C 7,2 C 6,5 C 0,0 C 80 % 85 % 1022,2 hPa 0,0 l/m 0,0 km/h (0 Bft) NO 45 0 min 4,4 C 6,5 C 0,0 km/h (0 Bft)
25.03.2021 23:25 7,5 C 8,6 C 6,3 C 7,1 C 6,3 C 0,0 C 80 % 85 % 1022,2 hPa 0,0 l/m 0,0 km/h (0 Bft) NO 45 0 min 4,3 C 6,3 C 0,0 km/h (0 Bft)
25.03.2021 23:30 7,2 C 8,6 C 6,1 C 6,8 C 6,0 C 0,0 C 80 % 86 % 1022,1 hPa 0,0 l/m 0,0 km/h (0 Bft) NO 45 0 min 4,0 C 6,0 C 0,0 km/h (0 Bft)
25.03.2021 23:35 7,2 C 8,6 C 5,9 C 6,7 C 5,8 C 0,0 C 81 % 86 % 1022,1 hPa 0,0 l/m 0,0 km/h (0 Bft) NW 315 0 min 4,2 C 5,8 C 0,0 km/h (0 Bft)
25.03.2021 23:40 7,1 C 8,7 C 5,9 C 6,7 C 5,8 C 0,0 C 82 % 87 % 1022,1 hPa 0,0 l/m 0,0 km/h (0 Bft) NW 315 0 min 4,2 C 5,8 C 0,0 km/h (0 Bft)
25.03.2021 23:45 7,1 C 8,7 C 5,9 C 6,7 C 5,8 C 0,0 C 82 % 87 % 1022,1 hPa 0,0 l/m 0,0 km/h (0 Bft) NW 315 0 min 4,2 C 5,8 C 0,0 km/h (0 Bft)
25.03.2021 23:50 6,9 C 8,8 C 5,7 C 6,5 C 5,7 C 0,0 C 82 % 87 % 1022,8 hPa 0,0 l/m 0,0 km/h (0 Bft) NW 315 0 min 4,0 C 5,7 C 0,0 km/h (0 Bft)
25.03.2021 23:55 6,8 C 8,7 C 5,5 C 6,4 C 5,5 C 0,0 C 82 % 87 % 1022,8 hPa 0,0 l/m 0,0 km/h (0 Bft) NW 315 0 min 3,9 C 5,5 C 0,0 km/h (0 Bft)
_ Min-Zeit 05:50 09:35 05:50 05:10 04:40 00:00 15:45 11:55 16:50 - 00:00 - - - 05:50 04:40 00:00
Minimum _ -1,3 C 6,0 C -1,2 C -1,5 C -2,3 C 0,0 C 48 % 45 % 1020,9 hPa - 0,0 km/h (0 Bft) - - - -3,0 C -2,3 C 0,0 km/h (0 Bft)
_ Max-Zeit 15:00 23:50 11:40 15:00 15:00 08:40 08:40 04:05 00:00 00:00 12:30 - - 07:25 09:45 15:00 14:30
Maximum _ 16,7 C 8,8 C 19,3 C 20,5 C 20,5 C 11,4 C 89 % 92 % 1023,8 hPa 0,0 l/m 7,4 km/h
W-SW (2 Bft)
- - 5 min 7,4 C 20,5 C 13,7 km/h
SW (3 Bft)
Durchschnitt _ 7,7 C 7,3 C 7,8 C 9,3 C 9,0 C 1,8 C 73 % 75 % 1022,5 hPa #0,0 l/m 1,2 km/h (1 Bft) SW - #6:35 h 2,8 C 9,0 C 1,5 km/h (1 Bft)
2021 www.wetterstation-wechselburg.de